Tucson, AZ

2:47 PM MST on December 06, 2019 (GMT -0700)
Tucson International

Weather History for KTUS - November, 2019

Change the Weather History Date:

Sunday, November 17, 2019

  Actual Average Record
Temperature  
Mean Temperature 69 °F 59 °F  
Max Temperature 85 °F 73 °F 87 °F (1999)
Min Temperature 52 °F 46 °F 24 °F (1958)
Degree Days  
Heating Degree Days 0 6  
Month to date heating degree days 1 71  
Since 1 July heating degree days 28 95  
Cooling Degree Days 4 0  
Month to date cooling degree days 66 25  
Year to date cooling degree days 3362 3144  
Growing Degree Days 16 (Base 50)    
Moisture  
Dew Point 30 °F    
Average Humidity 29    
Maximum Humidity 44    
Minimum Humidity 14    
Precipitation  
Precipitation 0.00 in 0.02 in 1.27 in (1900)
Month to date precipitation 0.09 0.28  
Year to date precipitation 10.19 10.37  
Sea Level Pressure  
Sea Level Pressure 29.97 in    
Wind  
Wind Speed 6 mph (SE)    
Max Wind Speed 13 mph    
Max Gust Speed 22 mph    
Visibility 10 miles    
Events      
T = Trace of Precipitation, MM = Missing Value Source: NWS Daily Summary

Daily Weather History Graph

Daily Weather History Graph

Search for Another Location

Airport or City:

Astronomy

Nov. 17, 2019 Rise Set
Actual Time 6:54 AM MST 5:22 PM MST
Civil Twilight 6:28 AM MST 5:48 PM MST
Nautical Twilight 5:58 AM MST 6:18 PM MST
Astronomical Twilight 5:29 AM MST 6:47 PM MST
Moon 10:07 PM MST (11/17) 11:38 AM MST (11/17)
Length of Visible Light 11h 20m
Length of Day
10h 28m
Waning Gibbous, 73% of the Moon is Illuminated
Nov 17
Waning Gibbous
Nov 19
Last Quarter
Nov 26
New
Dec 3
First Quarter
Dec 11
Full

Hourly Weather History & Observations

Time (MST) Temp. Dew Point Humidity Pressure Visibility Wind Dir Wind Speed Gust Speed Precip Events Conditions
12:53 AM 57.0 °F 28.9 °F 34% 29.96 in 10.0 mi ESE 3.5 mph - N/A   Clear
1:53 AM 53.1 °F 28.9 °F 40% 29.97 in 10.0 mi SE 4.6 mph - N/A   Clear
2:53 AM 53.1 °F 28.9 °F 40% 29.97 in 10.0 mi SSE 6.9 mph - N/A   Clear
3:53 AM 53.1 °F 30.0 °F 41% 29.97 in 10.0 mi SE 8.1 mph - N/A   Clear
4:53 AM 52.0 °F 30.9 °F 45% 29.97 in 10.0 mi SE 8.1 mph - N/A   Clear
5:53 AM 52.0 °F 30.9 °F 45% 29.99 in 10.0 mi SSE 10.4 mph - N/A   Clear
6:53 AM 55.0 °F 30.9 °F 40% 30.00 in 10.0 mi SE 10.4 mph - N/A   Clear
7:53 AM 55.0 °F 30.0 °F 38% 30.01 in 10.0 mi SSE 3.5 mph - N/A   Clear
8:53 AM 62.1 °F 30.9 °F 31% 30.01 in 10.0 mi SSE 8.1 mph - N/A   Clear
9:53 AM 66.9 °F 34.0 °F 30% 30.03 in 10.0 mi SSE 8.1 mph - N/A   Clear
10:53 AM 73.9 °F 33.1 °F 22% 30.02 in 10.0 mi Calm Calm - N/A   Clear
11:53 AM 79.0 °F 32.0 °F 18% 29.99 in 10.0 mi Variable 3.5 mph - N/A   Clear
12:53 PM 81.0 °F 30.0 °F 16% 29.95 in 10.0 mi Calm Calm - N/A   Clear
1:53 PM 82.9 °F 30.0 °F 15% 29.92 in 10.0 mi ESE 6.9 mph - N/A   Clear
2:53 PM 82.9 °F 30.0 °F 15% 29.91 in 10.0 mi Variable 4.6 mph - N/A   Clear
3:53 PM 82.9 °F 30.0 °F 15% 29.91 in 10.0 mi West 4.6 mph - N/A   Clear
4:53 PM 82.0 °F 28.9 °F 14% 29.91 in 10.0 mi North 8.1 mph - N/A   Clear
5:53 PM 75.9 °F 27.0 °F 16% 29.93 in 10.0 mi NNE 3.5 mph - N/A   Clear
6:53 PM 73.0 °F 27.0 °F 18% 29.94 in 10.0 mi Calm Calm - N/A   Clear
7:53 PM 71.1 °F 28.9 °F 21% 29.96 in 10.0 mi SE 8.1 mph - N/A   Clear
8:53 PM 66.9 °F 28.0 °F 23% 29.97 in 10.0 mi East 4.6 mph - N/A   Clear
9:53 PM 64.9 °F 27.0 °F 24% 29.97 in 10.0 mi East 5.8 mph - N/A   Clear
10:53 PM 60.1 °F 27.0 °F 28% 29.97 in 10.0 mi SSE 6.9 mph - N/A   Clear
11:53 PM 57.0 °F 26.1 °F 30% 29.96 in 10.0 mi South 4.6 mph - N/A   Clear